Terminal Aerodrome Forecast
Issued by NWS Omaha/Valley, NE

Home | Current Version | Previous Version | Text Only | Print | Product List | Glossary On
Versions: 1 2 3 4 5 6 7 8 9 10 11 12 13 14 15 16 17 18 19 20 21 22 23 24 25 26 27 28 29 30 31 32 33 34 35 36 37 38 39 40 41 42 43 44 45
754
FTUS43 KOAX 062320
TAFOFK
TAF
KOFK 062320Z 0700/0724 22014KT P6SM BKN150
     FM070400 28014KT P6SM BKN120
     FM071600 29020G30KT P6SM BKN100
     FM072000 31025G35KT P6SM BKN080=

USA.gov is the U.S. government's official web portal to all federal, state and local government web resources and services.